User: anonymous
Location: Okie-Tex Star Party
(36.8978°N, 102.9520°W)
Time: 09:36:36
(UTC-05:00)
Language:

Hamsat - Orbit

View from above orbital plane
View from above orbital plane
View from above satellite
View from above satellite

Ground track
Ground track

The orbit data is extracted from the following two-line orbital elements,

1 28650U 05017B   14232.07369038  .00000796  00000-0  97357-4 0  8224
2 28650 097.5619 233.8578 0023384 308.7820 051.1306 14.85671523502717
Epoch (UTC): 20 August 2014 01:46:06
Eccentricity: 0.0023384
inclination: 97.5619°
perigee height: 595 km
apogee height: 628 km
right ascension of ascending node: 233.8578°
argument of perigee: 308.7820°
revolutions per day: 14.85671523
mean anomaly at epoch: 51.1306°
orbit number at epoch: 50271

The dashed part of the orbit path shows where the satellite is in the earth's shadow,  

DLR